TIANTONG-1 1 (41725 NORAD) Tracking and Keplerian Element Data

This shows tracking and keplerian element data for the satellite.

Feedback or suggestion? Click here.




ElementValue
Catalog41725
NameTIANTONG-1 1
Epoch Orbit875
Epoch Day345.52952324
Epoch Year2018
RAAN327.4359
Inclination3.799
Eccentricity0.0005612
Argument of Perigee351.4382
Mean Anonmoly53.3892
Mean Motion1.00272059
Decay Rate-3.12E-06
L11 41725U 16048A 18345.52952324 -.00000312 00000-0 00000+0 0 9997
L22 41725 3.7990 327.4359 0005612 351.4382 53.3892 1.00272059 8758

Live tracking and technical data element details for TIANTONG-1 1 (NORAD 41725). TIANTONG-1 1 can be tracked NOW for your location showing map with azimuth and elevation plus other details from your city location.

Track the satellite on the map from your city or location and see movement details for azimuth, elevation, latitude, longitude, range, height, and movement on the map or in text.







IsCatalogInMostPopularTable: catalog: 41725, numindb: 235
Update: records affected: 1



GetName: 41725 TIANTONG-1 1

Hit Count: updated at: Thu, 13 Dec 2018 03:27:09 GMT